Find Starlink 37097

NORAD ID: 68238 Int'l Des: 2026-054 Owner: SPXS Country: US Constellation: starlink operational
LEOCIRCULAR

实时位置

正在加载3D地球...

关于 Starlink 37097

正在加载描述...

即将过境

Passes for default location (London). Set your location on the main map for personalized predictions.

高度历史

Loading altitude history...

两行轨道根数

1 68238U 26054G 26122.07000911 .00161574 00000-0 10371-2 0 9993
2 68238 53.1594 46.1292 0001151 97.4664 262.6487 15.75262247 7209
Epoch: May 2, 2026 • Age: 17 hours

当前状态

高度 352.3 km
速度 7.70 km/s
星下点 -28.33°S, 115.8°W
发射日期 Mar 17, 2026
运行时间 0.1 years
类型 internet

技术详情

分类 Payload
质量 575.00 kg
干质量 530.00 kg
总质量 575.00 kg
长度 0.30 m
直径 4.10 m
跨度 29.00 m
形状 Box + pan
制造商 SPXS
平台类型 Starlink V2MO
阶段状态 In Orbit
所有者/国家 SPXS/US

Most Searched